Location: �chenoz-la-M�line
(47.6009°N, 6.1354°E)
Time: 04:42:49
(UTC+00:00)

CZ-4B DEB - Pass Details

Date: 27 January 2021
Orbit: 841 x 861 km, 99.1° (Epoch: 27 February)

Event Time Altitude Azimuth Distance (km) Brightness Sun altitude
Rises 06:20:32 0° 11° (N) 3,452 7.3 -8.2°
Reaches altitude 10° 06:22:58 10° 7° (N) 2,511 6.6 -7.8°
Maximum altitude 06:28:22 53° 292° (WNW) 1,049 4.4 -7.0°
Drops below altitude 10° 06:33:44 10° 217° (SW) 2,490 6.5 -6.1°
Sets 06:36:08 0° 212° (SSW) 3,420 7.2 -5.7°
